Regional Weather Roundup
Issued by NWS

Home | Current Version | Previous Version | Graphics & Text | Print | Product List | Glossary On
Versions: 1 2 3 4 5 6 7 8 9 10 11 12 13 14 15 16 17 18 19 20 21 22 23 24 25 26 27 28 29 30 31 32 33 34 35 36 37 38 39 40 41 42 43 44 45 46 47 48 49 50
087
ASUS45 KTFX 141410
RWRMT
MONTANA REGIONAL WEATHER ROUNDUP
NATIONAL WEATHER SERVICE GREAT FALLS MT
700 AM MST SUN FEB 14 2016

NOTE: "FAIR" INDICATES FEW OR NO CLOUDS BELOW 12000 FEET WITH NO
SIGNIFICANT WEATHER AND/OR OBSTRUCTIONS TO VISIBILITY.

MTZ001>007-043-141500-
WEST OF THE DIVIDE

CITY           SKY/WX    TMP DP  RH WIND       PRES   REMARKS
KALISPELL      CLOUDY    35  32  88 S10       29.93S WCI  27
MISSOULA       CLOUDY    34  30  85 N3        30.01S
BUTTE          CLOUDY    30  24  78 SW3       29.95S
MULLAN PASS    LGT SNOW  27  26  96 VRB6      29.96R VSB 3/4 WCI  20
ANACONDA         N/A     37  25  60 W13G18    29.93F WCI  29
DEER LODGE       N/A     34  27  75 CALM      29.95F
HAMILTON         N/A     43  28  56 SE10      30.00S
$$

MTZ008-052>055-141500-
SOUTHWEST MONTANA

CITY           SKY/WX    TMP DP  RH WIND       PRES   REMARKS
BOZEMAN        CLOUDY    39  24  55 W14       29.93S WCI  31
DILLON         CLOUDY    36  24  62 SW13G25   29.98S WCI  27
ENNIS          CLOUDY    36  25  64 SE12      30.03S WCI  27
$$

MTZ009-010-012-014-046-048-049-054-141500-
EAST SLOPES AND CENTRAL MONTANA

CITY           SKY/WX    TMP DP  RH WIND       PRES   REMARKS
CUT BANK       PTCLDY    33  23  66 W22G33    29.73F WCI  21
GREAT FALLS    CLEAR     38  22  52 W13       29.80R WCI  30
MALMSTROM AFB  PTCLDY    38  23  53 SW20G25   29.79S WCI  29
HELENA         PTCLDY    40  26  57 W18G28    29.88R
CHOTEAU          N/A     39  21  48 W21G32    29.76S WCI  29
$$

MTZ011-013-016-021-045-047-050-051-141500-
NORTH CENTRAL MONTANA

CITY           SKY/WX    TMP DP  RH WIND       PRES   REMARKS
HAVRE          CLOUDY    37  26  64 SW15      29.71F WCI  28
LEWISTOWN      CLOUDY    36  24  62 W9        29.77F WCI  29
N BAR RANCH    CLOUDY    36  25  64 W16G25    29.77F WCI  26
CHINOOK          N/A     41  25  52 SW12      29.71F
$$

MTZ017>020-022>027-061-062-141500-
NORTHEAST MONTANA

CITY           SKY/WX    TMP DP  RH WIND       PRES   REMARKS
GLASGOW        CLOUDY    32  24  72 W6        29.73F WCI  26
JORDAN           N/A     34  26  72 W9        29.76F WCI  27
SIDNEY         CLOUDY    27  23  86 S3        29.74F
WOLF POINT     CLOUDY    31  26  82 SW9       29.75S WCI  23
PLENTYWOOD       N/A     21  19  93 NW6       29.71F WCI  14
POPLAR           N/A     25  23  93 CALM      29.75S
$$

MTZ028>42-056>058-141500-
SOUTHCENTRAL AND SOUTHEAST MONTANA

CITY           SKY/WX    TMP DP  RH WIND       PRES   REMARKS
BAKER          CLOUDY    29  23  78 W7        29.77F WCI  22
BILLINGS       CLOUDY    37  28  70 SW10      29.82F WCI  30
LIVINGSTON     PTCLDY    38  25  59 W22G38    29.84F WCI  27
MILES CITY     CLOUDY    35  31  85 SW17G26   29.80F WCI  25
FORSYTH          N/A     36  34  93 W9        29.82S WCI  29
$$

REGIONAL REPORTS...DAKOTAS

CITY           SKY/WX    TMP DP  RH WIND       PRES   REMARKS
WILLISTON      PTCLDY    20  18  92 SW6       29.74S WCI  12
MINOT          CLOUDY    27  21  78 W9        29.69F WCI  18
DICKINSON      CLOUDY    22  20  92 W10       29.70F WCI  11
BEACH            N/A     30  28  93 W7        29.77S WCI  23
CROSBY         CLOUDY    28  28 100 SW3       29.72F
TIOGA          CLOUDY    30  30 100 NW15      29.73F WCI  19
WATFORD CITY     N/A     23  21  93 SW8       29.74R WCI  14
BISMARCK       CLOUDY    29  25  85 CALM      29.75F
GRAND FORKS    LGT SNOW  15   9  76 S20G31    29.84F WCI  -2
FARGO          LGT SNOW  14   9  80 S22G28    29.88F VSB 3/4 WCI  -4
BUFFALO SD       N/A     31  24  75 W12       29.71S WCI  22
RAPID CITY     CLOUDY    32  24  72 CALM      29.82F
$$

REGIONAL REPORTS...WYOMING/IDAHO/WASHINGTON

CITY           SKY/WX    TMP DP  RH WIND       PRES   REMARKS
GILLETTE       CLOUDY    28  22  78 NE6       29.83F WCI  22
SHERIDAN       CLOUDY    32  19  59 CALM      29.83F
BUFFALO WY     CLOUDY    32  19  58 W8        29.82F WCI  25
CODY           CLOUDY    39  19  45 W10G22    29.85S
YELLOWSTONE LA   N/A     23  19  85 VRB7      29.98S WCI  15
IDAHO FALLS    CLOUDY    33  31  92 SW18      30.12R WCI  22
SALMON         CLOUDY    28  25  86 CALM      30.08R
BOISE          LGT RAIN  40  39  97 E3        30.22R
SPOKANE        CLOUDY    38  36  92 SW10      30.04F WCI  31
$$

REGIONAL REPORTS...ALBERTA

CITY           SKY/WX    TMP DP  RH WIND       PRES   REMARKS
EDMONTON       CLOUDY    28  21  74 W5        29.63S
CALGARY        PTCLDY    34  18  51 W5        29.66S
LETHBRIDGE     MOCLDY    41  23  48 W28G33    29.70S
MEDICINE HAT   MOCLDY    34  27  75 W6        29.66S WCI  29
WATERTON GATE    N/A     34  23  64 SW15G22     N/A  WCI  24
MILK RIVER       N/A     36  23  60 W20         N/A  WCI  25
ONEFOUR          N/A     30  21  69 NW5         N/A
$$

REGIONAL REPORTS...SASKATCHEWAN

CITY           SKY/WX    TMP DP  RH WIND       PRES   REMARKS
SWIFT CURRENT  CLOUDY    25  21  86 SW9       29.62F WCI  15
REGINA         FOG       23  21  93 SW5       29.67F VSB 1/4
SASKATOON      CLOUDY    16  16 100 SW8       29.64S WCI   5
CYPRESS HILLS    N/A     28  19  69 W8          N/A  WCI  20
VAL MARIE        N/A     30  25  80 W6          N/A  WCI  24
ROCKGLEN         N/A     27  23  86 W12         N/A  WCI  16
ASSINIBOIA       N/A     27  25  93 W3          N/A
$$




USA.gov is the U.S. government's official web portal to all federal, state and local government web resources and services.